TimeEDT,TemperatureF,Dew PointF,Humidity,Sea Level PressureIn,VisibilityMPH,Wind Direction,Wind SpeedMPH,Gust SpeedMPH,PrecipitationIn,Events,Conditions,WindDirDegrees,DateUTC
12:15 AM,43.9,40.6,88,30.14,10.0,South,3.5,-,N/A,,Clear,170,2013-09-23 04:15:00
12:35 AM,43.0,41.0,93,30.14,10.0,Calm,Calm,-,N/A,,Clear,0,2013-09-23 04:35:00
12:54 AM,42.8,41.0,93,30.15,10.0,Calm,Calm,-,N/A,,Clear,0,2013-09-23 04:54:00
1:15 AM,41.5,40.3,95,30.15,10.0,Calm,Calm,-,N/A,,Clear,0,2013-09-23 05:15:00
1:35 AM,41.0,40.3,97,30.15,10.0,Calm,Calm,-,N/A,,Clear,0,2013-09-23 05:35:00
1:54 AM,40.3,39.7,98,30.15,10.0,Calm,Calm,-,N/A,,Clear,0,2013-09-23 05:54:00
2:15 AM,40.1,39.6,98,30.16,10.0,South,3.5,-,N/A,,Clear,180,2013-09-23 06:15:00
2:34 AM,40.3,40.1,99,30.16,10.0,South,3.5,-,N/A,,Clear,170,2013-09-23 06:34:00
2:54 AM,40.3,40.1,99,30.16,10.0,Calm,Calm,-,N/A,,Clear,0,2013-09-23 06:54:00
3:15 AM,40.3,40.1,99,30.16,10.0,Calm,Calm,-,N/A,,Clear,0,2013-09-23 07:15:00
3:34 AM,41.0,40.6,99,30.16,10.0,Calm,Calm,-,N/A,,Clear,0,2013-09-23 07:34:00
3:55 AM,41.0,40.5,98,30.16,10.0,SE,4.6,-,N/A,,Clear,140,2013-09-23 07:55:00
4:15 AM,40.1,40.1,100,30.16,10.0,SSE,4.6,-,N/A,,Clear,150,2013-09-23 08:15:00
4:34 AM,40.8,40.8,100,30.17,10.0,SSE,5.8,-,N/A,,Clear,150,2013-09-23 08:34:00
4:55 AM,41.2,41.2,100,30.17,10.0,SSE,4.6,-,N/A,,Clear,150,2013-09-23 08:55:00
5:15 AM,40.5,40.5,100,30.17,10.0,SSE,5.8,-,N/A,,Clear,160,2013-09-23 09:15:00
5:34 AM,41.0,41.0,100,30.18,10.0,SSE,4.6,-,N/A,,Clear,160,2013-09-23 09:34:00
5:55 AM,40.3,40.3,100,30.18,10.0,SSE,4.6,-,N/A,,Clear,160,2013-09-23 09:55:00
6:15 AM,40.1,40.1,100,30.19,10.0,SSE,4.6,-,N/A,,Clear,150,2013-09-23 10:15:00
6:34 AM,39.7,39.7,100,30.19,10.0,SSE,4.6,-,N/A,,Clear,150,2013-09-23 10:34:00
6:55 AM,39.6,39.6,100,30.19,10.0,SSE,4.6,-,N/A,,Clear,150,2013-09-23 10:55:00
7:15 AM,39.6,39.6,100,30.20,10.0,SE,4.6,-,N/A,,Clear,140,2013-09-23 11:15:00
7:34 AM,39.4,39.4,100,30.21,10.0,SSE,5.8,-,N/A,,Clear,150,2013-09-23 11:34:00
7:55 AM,39.6,39.6,100,30.21,10.0,SSE,4.6,-,N/A,,Clear,150,2013-09-23 11:55:00
8:14 AM,40.3,40.1,99,30.21,10.0,SSE,5.8,-,N/A,,Clear,160,2013-09-23 12:14:00
8:34 AM,41.4,40.5,97,30.22,10.0,SE,5.8,-,N/A,,Clear,130,2013-09-23 12:34:00
8:55 AM,42.8,41.2,94,30.22,10.0,ESE,4.6,-,N/A,,Clear,120,2013-09-23 12:55:00
9:14 AM,44.6,41.9,90,30.22,10.0,SE,4.6,-,N/A,,Clear,130,2013-09-23 13:14:00
9:35 AM,46.4,43.0,88,30.22,10.0,SE,4.6,-,N/A,,Clear,140,2013-09-23 13:35:00
9:54 AM,48.4,43.2,82,30.22,10.0,ESE,6.9,-,N/A,,Clear,110,2013-09-23 13:54:00
10:14 AM,50.4,43.9,78,30.22,10.0,SE,5.8,-,N/A,,Clear,130,2013-09-23 14:14:00
10:35 AM,51.4,41.9,70,30.23,10.0,ESE,6.9,-,N/A,,Clear,120,2013-09-23 14:35:00
10:54 AM,52.7,41.9,67,30.23,10.0,SE,5.8,-,N/A,,Clear,130,2013-09-23 14:54:00
11:15 AM,53.2,39.9,61,30.23,10.0,SSE,6.9,-,N/A,,Clear,150,2013-09-23 15:15:00
11:35 AM,53.8,39.6,59,30.23,10.0,SE,5.8,-,N/A,,Clear,130,2013-09-23 15:35:00
11:54 AM,54.0,39.4,58,30.23,10.0,ESE,5.8,-,N/A,,Clear,110,2013-09-23 15:54:00
12:15 PM,55.8,41.0,58,30.23,10.0,SE,6.9,-,N/A,,Clear,130,2013-09-23 16:15:00
12:35 PM,55.4,40.5,57,30.23,10.0,East,5.8,-,N/A,,Clear,90,2013-09-23 16:35:00
12:54 PM,55.8,42.4,61,30.22,10.0,East,6.9,-,N/A,,Clear,90,2013-09-23 16:54:00
1:15 PM,56.5,42.6,60,30.22,10.0,East,8.1,-,N/A,,Clear,90,2013-09-23 17:15:00
1:34 PM,57.0,42.6,59,30.22,10.0,ENE,3.5,-,N/A,,Clear,60,2013-09-23 17:34:00
1:55 PM,57.2,42.1,57,30.21,10.0,ENE,4.6,-,N/A,,Clear,60,2013-09-23 17:55:00
2:15 PM,58.5,44.6,60,30.20,10.0,WNW,5.8,-,N/A,,Clear,300,2013-09-23 18:15:00
2:34 PM,58.3,44.6,60,30.20,10.0,West,9.2,-,N/A,,Clear,280,2013-09-23 18:34:00
2:55 PM,58.1,44.1,60,30.20,10.0,West,5.8,-,N/A,,Clear,280,2013-09-23 18:55:00
3:15 PM,57.2,45.1,64,30.19,10.0,NW,8.1,-,N/A,,Clear,320,2013-09-23 19:15:00
3:34 PM,56.5,44.2,64,30.19,10.0,WNW,5.8,-,N/A,,Clear,300,2013-09-23 19:34:00
3:55 PM,56.3,44.4,64,30.18,10.0,NNW,6.9,-,N/A,,Clear,340,2013-09-23 19:55:00
4:14 PM,56.5,44.6,64,30.17,10.0,NNW,8.1,-,N/A,,Clear,340,2013-09-23 20:14:00
4:35 PM,56.1,44.1,64,30.17,10.0,NNW,6.9,-,N/A,,Clear,340,2013-09-23 20:35:00
4:55 PM,56.1,44.1,64,30.17,10.0,NW,5.8,-,N/A,,Clear,320,2013-09-23 20:55:00
5:14 PM,56.3,44.8,65,30.17,10.0,NNW,5.8,-,N/A,,Clear,330,2013-09-23 21:14:00
5:35 PM,56.5,45.0,65,30.17,10.0,NNW,5.8,-,N/A,,Clear,340,2013-09-23 21:35:00
5:54 PM,56.3,44.4,64,30.17,10.0,NW,5.8,-,N/A,,Clear,320,2013-09-23 21:54:00
6:14 PM,56.1,45.1,67,30.17,10.0,North,4.6,-,N/A,,Clear,350,2013-09-23 22:14:00
6:35 PM,55.6,45.1,68,30.17,10.0,North,4.6,-,N/A,,Clear,350,2013-09-23 22:35:00
6:54 PM,55.4,45.5,69,30.17,10.0,North,4.6,-,N/A,,Clear,360,2013-09-23 22:54:00
7:15 PM,54.5,45.7,72,30.17,10.0,North,3.5,-,N/A,,Clear,10,2013-09-23 23:15:00
7:35 PM,53.8,46.0,75,30.16,10.0,NNE,3.5,-,N/A,,Clear,30,2013-09-23 23:35:00
7:54 PM,53.6,46.0,76,30.16,10.0,NE,3.5,-,N/A,,Clear,50,2013-09-23 23:54:00
8:15 PM,53.2,46.4,78,30.15,5.0,Calm,Calm,-,N/A,,Haze,0,2013-09-24 00:15:00
8:34 PM,50.7,46.0,84,30.15,10.0,Calm,Calm,-,N/A,,Clear,0,2013-09-24 00:34:00
8:55 PM,48.9,46.6,92,30.15,10.0,Calm,Calm,-,N/A,,Clear,0,2013-09-24 00:55:00
9:15 PM,47.7,46.4,95,30.15,10.0,Calm,Calm,-,N/A,,Clear,0,2013-09-24 01:15:00
9:34 PM,47.5,46.6,97,30.15,10.0,Calm,Calm,-,N/A,,Clear,0,2013-09-24 01:34:00
9:55 PM,46.4,45.5,97,30.15,10.0,ESE,3.5,-,N/A,,Clear,120,2013-09-24 01:55:00
10:15 PM,45.3,44.8,98,30.15,10.0,Calm,Calm,-,N/A,,Clear,0,2013-09-24 02:15:00
10:34 PM,46.6,46.4,99,30.16,10.0,SSE,4.6,-,N/A,,Clear,150,2013-09-24 02:34:00
10:55 PM,47.7,47.1,98,30.16,10.0,SE,4.6,-,N/A,,Clear,140,2013-09-24 02:55:00
11:15 PM,47.5,46.8,97,30.16,10.0,SE,4.6,-,N/A,,Clear,140,2013-09-24 03:15:00
11:34 PM,47.1,46.4,97,30.16,10.0,SE,4.6,-,N/A,,Clear,140,2013-09-24 03:34:00
11:55 PM,46.4,45.7,97,30.16,10.0,SSE,3.5,-,N/A,,Clear,150,2013-09-24 03:55:00